User: anonymous   Login
Location: Kailua
(21.4020°N, 157.7390°W)
Time: 02:51:38
(UTC-10:00)
Language:

Cosmos 2297 Rocket - Orbit

View from above orbital plane
View from above orbital plane
View from above satellite
View from above satellite

Ground track
Ground track

The orbit data is extracted from the following two-line orbital elements,

1 23405U 94077B   16043.80767017  .00000264  00000-0  16044-3 0  9991
2 23405  70.9832 166.4072 0003717 311.2009  48.8793 14.15174253 96136
Epoch (UTC): 12 February 2016 19:23:02
Eccentricity: 0.0003717
inclination: 70.9832°
perigee height: 839 km
apogee height: 844 km
right ascension of ascending node: 166.4072°
argument of perigee: 311.2009°
revolutions per day: 14.15174253
mean anomaly at epoch: 48.8793°
orbit number at epoch: 9613

The dashed part of the orbit path shows where the satellite is in the earth's shadow,  

DLR